Grand Rapids, MN

7:27 PM CDT on March 25, 2017 (GMT -0500)
Grand Rapids-Itasca County-Newstrom Field

Weather History for KGPZ - July, 2013

Change the Weather History Date:

Friday, July 26, 2013

  Actual Average Record
Temperature  
Mean Temperature 52 °F -  
Max Temperature 57 °F 80 °F 100 °F (1929)
Min Temperature 48 °F 56 °F 38 °F (1915)
Degree Days  
Heating Degree Days 12    
Growing Degree Days 2 (Base 50)    
Moisture  
Dew Point 49 °F    
Average Humidity 83    
Maximum Humidity 94    
Minimum Humidity 67    
Precipitation  
Precipitation 0.03 in - - ()
Sea Level Pressure  
Sea Level Pressure 30.02 in    
Wind  
Wind Speed 10 mph (NNW)    
Max Wind Speed 22 mph    
Max Gust Speed 29 mph    
Visibility 10 miles    
Events      
Averages and records for this station are not official NWS values.
T = Trace of Precipitation, MM = Missing Value Source: NWS Daily Summary

Daily Weather History Graph

Daily Weather History Graph

Search for Another Location

Airport or City:

Trip Planner

Search our weather history database for the weather conditions in past years. The results will help you decide how hot, cold, wet, or windy it might be!

Date:

Astronomy

Jul. 26, 2013 Rise Set
Actual Time 5:45 AM CDT 8:54 PM CDT
Civil Twilight 5:09 AM CDT 9:31 PM CDT
Nautical Twilight 4:21 AM CDT 10:18 PM CDT
Astronomical Twilight 3:22 AM CDT 11:16 PM CDT
Moon 10:43 PM CDT 10:45 AM CDT
Length of Visible Light 16h 21m
Length of Day
15h 08m
Waning Gibbous, 80% of the Moon is Illuminated
Jul 26
Waning Gibbous
Jul 29
Last Quarter
Aug 6
New
Aug 14
First Quarter
Aug 20
Full

Hourly Weather History & Observations

Time (CDT) Temp. Dew Point Humidity Pressure Visibility Wind Dir Wind Speed Gust Speed Precip Events Conditions
12:15 AM 53.6 °F 51.8 °F 94% 29.90 in 7.0 mi South 4.6 mph - N/A   Partly Cloudy
12:35 AM 55.4 °F 53.6 °F 94% 29.90 in 10.0 mi South 4.6 mph - N/A   Clear
12:55 AM 55.4 °F 53.6 °F 94% 29.90 in 8.0 mi South 4.6 mph - N/A   Clear
1:15 AM 57.2 °F 55.4 °F 94% 29.90 in 10.0 mi West 5.8 mph - N/A   Mostly Cloudy
1:35 AM 57.2 °F 55.4 °F 94% 29.89 in 10.0 mi WSW 4.6 mph - N/A   Mostly Cloudy
1:55 AM 57.2 °F 53.6 °F 88% 29.89 in 10.0 mi West 5.8 mph - N/A   Clear
2:15 AM 57.2 °F 53.6 °F 88% 29.88 in 10.0 mi West 4.6 mph - N/A   Clear
2:35 AM 57.2 °F 53.6 °F 88% 29.88 in 10.0 mi West 8.1 mph - N/A   Scattered Clouds
2:55 AM 57.2 °F 53.6 °F 88% 29.88 in 10.0 mi West 8.1 mph - N/A   Overcast
3:15 AM 57.2 °F 53.6 °F 88% 29.88 in 10.0 mi West 6.9 mph - N/A   Overcast
3:35 AM 57.2 °F 53.6 °F 88% 29.88 in 10.0 mi West 6.9 mph - N/A   Mostly Cloudy
3:55 AM 57.2 °F 53.6 °F 88% 29.88 in 10.0 mi West 8.1 mph - N/A   Mostly Cloudy
4:15 AM 57.2 °F 53.6 °F 88% 29.88 in 10.0 mi WNW 8.1 mph - N/A   Mostly Cloudy
4:35 AM 57.2 °F 53.6 °F 88% 29.88 in 10.0 mi WNW 10.4 mph - N/A   Overcast
4:55 AM 57.2 °F 53.6 °F 88% 29.88 in 10.0 mi West 9.2 mph - N/A   Overcast
5:15 AM 57.2 °F 53.6 °F 88% 29.89 in 10.0 mi WNW 11.5 mph - N/A   Overcast
5:35 AM 57.2 °F 53.6 °F 88% 29.89 in 10.0 mi WNW 9.2 mph - 0.01 in   Overcast
5:55 AM 57.2 °F 53.6 °F 88% 29.89 in 10.0 mi NW 10.4 mph - 0.02 in   Overcast
6:15 AM 57.2 °F 53.6 °F 88% 29.90 in 9.0 mi NNW 12.7 mph 16.1 mph 0.01 in   Overcast
6:35 AM 55.4 °F 53.6 °F 94% 29.90 in 10.0 mi NNW 9.2 mph - 0.01 in   Overcast
6:55 AM 55.4 °F 53.6 °F 94% 29.90 in 10.0 mi NNW 15.0 mph - 0.01 in   Overcast
7:15 AM 55.4 °F 53.6 °F 94% 29.91 in 10.0 mi NNW 12.7 mph - N/A   Overcast
7:35 AM 55.4 °F 53.6 °F 94% 29.91 in 10.0 mi North 12.7 mph - N/A   Overcast
7:55 AM 55.4 °F 53.6 °F 94% 29.92 in 5.0 mi NNW 16.1 mph 19.6 mph N/A   Overcast
8:15 AM 55.4 °F 53.6 °F 94% 29.93 in 9.0 mi NNW 12.7 mph - N/A   Overcast
8:35 AM 55.4 °F 53.6 °F 94% 29.94 in 10.0 mi North 19.6 mph 23.0 mph N/A   Overcast
8:55 AM 55.4 °F 51.8 °F 88% 29.95 in 10.0 mi North 13.8 mph 23.0 mph N/A   Overcast
9:15 AM 55.4 °F 51.8 °F 88% 29.96 in 8.0 mi North 15.0 mph 20.7 mph N/A   Overcast
9:35 AM 53.6 °F 50.0 °F 88% 29.97 in 10.0 mi North 17.3 mph 24.2 mph N/A   Overcast
9:55 AM 55.4 °F 50.0 °F 82% 29.98 in 10.0 mi North 16.1 mph 21.9 mph N/A   Overcast
10:15 AM 55.4 °F 48.2 °F 77% 29.99 in 10.0 mi North 12.7 mph 21.9 mph N/A   Overcast
10:35 AM 55.4 °F 48.2 °F 77% 30.01 in 10.0 mi NNE 10.4 mph 21.9 mph N/A   Overcast
10:55 AM 53.6 °F 48.2 °F 82% 30.02 in 9.0 mi North 13.8 mph 27.6 mph N/A   Overcast
11:15 AM 53.6 °F 48.2 °F 82% 30.03 in 10.0 mi North 13.8 mph 25.3 mph N/A   Overcast
11:35 AM 53.6 °F 48.2 °F 82% 30.04 in 10.0 mi North 17.3 mph 26.5 mph N/A   Overcast
11:55 AM 53.6 °F 46.4 °F 77% 30.05 in 10.0 mi North 17.3 mph 23.0 mph N/A   Overcast
12:15 PM 55.4 °F 46.4 °F 72% 30.05 in 10.0 mi North 12.7 mph 19.6 mph N/A   Overcast
12:35 PM 55.4 °F 46.4 °F 72% 30.06 in 10.0 mi North 10.4 mph 16.1 mph N/A   Overcast
12:55 PM 55.4 °F 46.4 °F 72% 30.07 in 10.0 mi North 11.5 mph - N/A   Overcast
1:15 PM 57.2 °F 46.4 °F 67% 30.07 in 10.0 mi North 12.7 mph 18.4 mph N/A   Overcast
1:35 PM 55.4 °F 48.2 °F 77% 30.08 in 10.0 mi North 11.5 mph - N/A   Overcast
1:55 PM 55.4 °F 48.2 °F 77% 30.08 in 10.0 mi North 18.4 mph - N/A   Overcast
2:15 PM 55.4 °F 46.4 °F 72% 30.08 in 10.0 mi NNW 17.3 mph - N/A   Overcast
2:35 PM 55.4 °F 46.4 °F 72% 30.08 in 10.0 mi North 21.9 mph 28.8 mph N/A   Overcast
2:55 PM 55.4 °F 46.4 °F 72% 30.08 in 10.0 mi North 16.1 mph 26.5 mph N/A   Overcast
3:15 PM 55.4 °F 46.4 °F 72% 30.09 in 10.0 mi North 13.8 mph 21.9 mph N/A   Overcast
3:35 PM 55.4 °F 46.4 °F 72% 30.10 in 10.0 mi North 15.0 mph 21.9 mph N/A   Overcast
3:55 PM 57.2 °F 46.4 °F 67% 30.10 in 10.0 mi North 20.7 mph 26.5 mph N/A   Overcast
4:15 PM 55.4 °F 46.4 °F 72% 30.10 in 10.0 mi North 11.5 mph 19.6 mph N/A   Overcast
4:35 PM 55.4 °F 44.6 °F 67% 30.10 in 10.0 mi North 12.7 mph 20.7 mph N/A   Overcast
4:55 PM 55.4 °F 46.4 °F 72% 30.11 in 10.0 mi North 15.0 mph 20.7 mph N/A   Overcast
5:15 PM 55.4 °F 44.6 °F 67% 30.12 in 10.0 mi North 17.3 mph 23.0 mph N/A   Overcast
5:35 PM 53.6 °F 46.4 °F 77% 30.12 in 10.0 mi North 13.8 mph 18.4 mph N/A   Overcast
5:55 PM 53.6 °F 44.6 °F 72% 30.13 in 10.0 mi North 16.1 mph 21.9 mph N/A   Overcast
6:15 PM 51.8 °F 44.6 °F 76% 30.14 in 10.0 mi North 15.0 mph 19.6 mph N/A   Overcast
6:35 PM 51.8 °F 44.6 °F 76% 30.14 in 10.0 mi North 13.8 mph - N/A   Overcast
6:55 PM 51.8 °F 44.6 °F 76% 30.14 in 10.0 mi North 12.7 mph - N/A   Overcast
7:15 PM 51.8 °F 44.6 °F 76% 30.14 in 10.0 mi North 10.4 mph - N/A   Overcast
7:35 PM 51.8 °F 44.6 °F 76% 30.14 in 10.0 mi North 9.2 mph - N/A   Overcast
7:55 PM 51.8 °F 44.6 °F 76% 30.15 in 10.0 mi North 8.1 mph - N/A   Overcast
8:15 PM 51.8 °F 44.6 °F 76% 30.15 in 7.0 mi North 9.2 mph 20.7 mph N/A   Overcast
8:35 PM 50.0 °F 44.6 °F 82% 30.14 in 10.0 mi North 9.2 mph - N/A   Overcast
8:55 PM 50.0 °F 44.6 °F 82% 30.14 in 10.0 mi North 8.1 mph - N/A   Overcast
9:15 PM 50.0 °F 44.6 °F 82% 30.14 in 10.0 mi North 10.4 mph - N/A   Overcast
9:35 PM 48.2 °F 44.6 °F 87% 30.14 in 9.0 mi North 8.1 mph - N/A   Overcast
9:55 PM 48.2 °F 44.6 °F 87% 30.14 in 10.0 mi North 9.2 mph - N/A   Mostly Cloudy
10:15 PM 48.2 °F 44.6 °F 87% 30.14 in 10.0 mi North 9.2 mph - N/A   Overcast
10:35 PM 48.2 °F 44.6 °F 87% 30.13 in 10.0 mi North 9.2 mph - N/A   Overcast
10:55 PM 48.2 °F 44.6 °F 87% 30.13 in 10.0 mi North 8.1 mph - N/A   Overcast
11:15 PM 48.2 °F 44.6 °F 87% 30.12 in 10.0 mi North 9.2 mph - N/A   Overcast
11:35 PM 48.2 °F 44.6 °F 87% 30.11 in 10.0 mi North 6.9 mph - N/A   Overcast
11:55 PM 48.2 °F 44.6 °F 87% 30.12 in 10.0 mi North 6.9 mph - N/A   Overcast